Hourly Weather Roundup
Issued by NWS Central Illinois

Home | Current Version | Previous Version | Text Only | Print | Product List | Glossary On
Versions: 1 2 3 4 5 6 7 8 9 10 11 12 13 14 15 16 17 18 19 20 21 22 23 24 25 26 27 28 29 30 31 32 33 34 35 36 37 38 39 40 41 42 43 44 45 46 47 48 49 50
000
NZUS43 KILX 221310
HWRILX

Area Weather Roundup
National Weather Service Lincoln IL
800 AM CDT TUE AUG 22 2017

NOTE:  "FAIR" indicates few or no clouds below 12,000 feet, with
       no sigificant weather and/or obstructions to visibility.


CITY           SKY/WX    TMP DP  RH WIND       PRES   REMARKS
Bloomington    CLOUDY    67  66  97 W8        29.95S
Champaign      LGT RAIN  69  68  96 S5        29.92F
Danville       LGT RAIN  68  68  99 CALM      29.92S
Decatur        CLOUDY    69  68  96 S8        29.92F
Effingham      CLOUDY    71  71 100 CALM      29.98S
Flora          CLOUDY    73  71  93 CALM      29.98R
Galesburg      CLOUDY    67  66  99 W6        29.97R
Jacksonville   CLOUDY    68  67  98 W5        29.96R
Lacon          CLOUDY    68  68 100 CALM      29.93R
Lawrenceville  CLOUDY    75  72  90 N9        29.98R
Litchfield     LGT RAIN  68  68  99 SE7       29.95F
$$


CITY           SKY/WX    TMP DP  RH WIND       PRES   REMARKS
Lincoln        CLOUDY    69  69 100 CALM      29.95R
Macomb         CLOUDY    67  65  93 NW8       29.99R
Mattoon        LGT RAIN  70  70 100 S3        29.95F
Mt Carmel AP   CLOUDY    75  70  86 NW7       29.99R
Olney-Noble AP DRIZZLE   72  70  93 CALM      29.98S
Paris AP       DRIZZLE   70  70  99 CALM      29.96F
Peoria         CLOUDY    69  68  96 CALM      29.94S
Pontiac        CLOUDY    70  69  98 W5        29.94F
Rantoul        LGT RAIN  70  69  99 S3        29.92F
Robinson       CLOUDY    72  69  92 NW5       29.98S
Springfield    CLOUDY    70  69  97 W6        29.94R
Taylorville    DRIZZLE   69  69 100 S6        29.94F
$$

...REGIONAL REPORTS...


CITY           SKY/WX    TMP DP  RH WIND       PRES   REMARKS
Chicago O`Hare CLOUDY    71  66  84 SW12      29.87S
Kankakee       CLOUDY    69  68  98 CALM      29.93S
Moline         CLOUDY    69  64  84 W9        29.94R
Mount Sterling CLOUDY    66  64  94 NW3       29.98R
Mount Vernon   LGT RAIN  72  70  93 CALM      29.99R
Pittsfield     CLOUDY    68  68  99 N9        29.99R
Quincy         CLOUDY    66  64  93 W6        29.99R
Rockford       CLOUDY    69  64  84 W8        29.91R
$$


CITY           SKY/WX    TMP DP  RH WIND       PRES   REMARKS
Burlington     CLOUDY    67  66  97 VRB3      29.97R
Cedar Rapids   CLOUDY    64  64 100 NW10      29.97R
Des Moines     MOSUNNY   66  62  87 NW9       30.04R
Kirksville     CLOUDY    66  65  96 NW7       30.03R
Ottumwa        CLOUDY    66  64  93 NW12      30.01R
St Louis       LGT RAIN  71  71 100 S8        29.96F
$$


CITY           SKY/WX    TMP DP  RH WIND       PRES   REMARKS
Terre Haute    LGT RAIN  73  69  87 NW6       29.96S FOG
Evansville     CLOUDY    78  74  87 SW10      29.98S HX  81
Indianapolis   TSTM      70  68  93 NW8       29.96S
Lafayette      LGT RAIN  68  68 100 S6        29.93F
Madison        CLOUDY    66  62  87 VRB6      29.86R
Milwaukee      CLOUDY    71  62  73 W10G22    29.82S
$$






USA.gov is the U.S. government's official web portal to all federal, state and local government web resources and services.